TimeEST,TemperatureF,Dew PointF,Humidity,Sea Level PressureIn,VisibilityMPH,Wind Direction,Wind SpeedMPH,Gust SpeedMPH,PrecipitationIn,Events,Conditions,WindDirDegrees,DateUTC
12:54 AM,41.0,28.9,62,29.85,10.0,NW,5.8,-,N/A,,Clear,320,2013-03-01 05:54:00
1:54 AM,42.1,28.0,58,29.85,10.0,NNW,10.4,-,N/A,,Clear,330,2013-03-01 06:54:00
4:54 AM,37.9,28.0,68,29.86,10.0,WNW,3.5,-,N/A,,Clear,290,2013-03-01 09:54:00
5:54 AM,37.0,28.0,70,29.86,10.0,WNW,3.5,-,N/A,,Clear,300,2013-03-01 10:54:00
6:54 AM,36.0,28.0,73,29.88,10.0,WSW,3.5,-,N/A,,Clear,240,2013-03-01 11:54:00
7:54 AM,39.9,30.0,68,29.89,10.0,West,6.9,-,N/A,,Clear,280,2013-03-01 12:54:00
8:54 AM,44.1,30.0,58,29.88,10.0,NW,8.1,-,N/A,,Clear,320,2013-03-01 13:54:00
9:54 AM,48.0,30.9,52,29.88,10.0,NNW,8.1,-,N/A,,Clear,340,2013-03-01 14:54:00
10:54 AM,52.0,30.9,45,29.87,10.0,WNW,5.8,-,N/A,,Clear,300,2013-03-01 15:54:00
11:54 AM,52.0,28.0,40,29.87,10.0,NNW,8.1,-,N/A,,Clear,340,2013-03-01 16:54:00
1:54 PM,53.1,28.0,38,29.82,10.0,WNW,9.2,-,N/A,,Scattered Clouds,290,2013-03-01 18:54:00
2:54 PM,54.0,28.9,38,29.82,10.0,West,8.1,16.1,N/A,,Overcast,280,2013-03-01 19:54:00
4:54 PM,52.0,28.9,41,29.83,10.0,NNW,10.4,-,N/A,,Overcast,330,2013-03-01 21:54:00
5:54 PM,51.1,30.0,44,29.85,10.0,NW,5.8,-,N/A,,Overcast,320,2013-03-01 22:54:00
6:54 PM,48.9,30.9,50,29.87,10.0,North,8.1,-,N/A,,Overcast,350,2013-03-01 23:54:00
7:54 PM,48.0,30.9,52,29.90,10.0,North,8.1,-,N/A,,Overcast,350,2013-03-02 00:54:00
8:54 PM,48.0,30.0,50,29.90,10.0,NNW,6.9,-,N/A,,Overcast,330,2013-03-02 01:54:00
9:54 PM,46.9,30.0,52,29.91,10.0,Calm,Calm,-,N/A,,Overcast,0,2013-03-02 02:54:00
10:54 PM,46.0,30.9,56,29.91,10.0,Calm,Calm,-,N/A,,Overcast,0,2013-03-02 03:54:00
11:54 PM,46.0,32.0,58,29.91,10.0,Calm,Calm,-,N/A,,Overcast,0,2013-03-02 04:54:00